Weather in Shonai

Japan     31°42′44″N   131°03′57″E
temp.,
°C
wind,
m/s
gust,
m/s
humid.,
%
clouds,
%
prec.,
mm/h
press.,
hPa
HPBL,
m
13 april, tue
tue1300:00+15se31094100 1.5 1020895
03:00+15se41195100 4.7 1017882
06:00+15se41298100 6.9 1015859
09:00+16se31099100 29.1 1014666
12:00+17sw159895 9.3 1012381
15:00+20w577514 9.6 10111036
18:00+17w4777100 0.0 1012561
21:00+12w389399 0.0 1013270
14 april, wed
wed1400:00+10w259514 0.0 1014178
03:00+10wnw259236 0.0 1013170
06:00+9w397964 0.0 1013314
09:00+13wnw3655100 0.0 1014527
12:00+17wnw4642100 0.0 1013873
15:00+19wnw463411 0.0 10121130
18:00+14wnw256099 0.0 1013198
21:00+9nnw017298 0.0 101716
15 april, thu
thu1500:00+9nne1174100 0.0 101822
03:00+8nne2383100 0.0 101872
06:00+6ne1279100 0.0 101930
09:00+12ene36425 0.0 1020786
12:00+16ene3343100 0.0 10191338
15:00+18ese224342 0.0 10181653
18:00+14se146952 0.0 1019234
21:00+9ne228472 0.0 102147
16 april, fri
fri1600:00+8nne1286100 0.0 102032
03:00+8nne1285100 0.0 101938
06:00+8ne1284100 0.0 101941
09:00+13ene257382 0.0 1019326
12:00+14ne1482100 0.1 1018237
15:00+14nne1385100 0.1 1016164
18:00+12ene1397100 1.7 101795
21:00+11n119763 1.7 101813
17 april, sat
sat1700:00+11w119729 0.0 101813
03:00+12w1298100 0.0 101661
06:00+10w269797 0.0 1017161
09:00+16wnw377474 0.0 1017796
12:00+21wnw483519 0.0 10161620
15:00+20wnw511321 0.0 10151791
18:00+15w59625 0.0 1016907
21:00+10wnw387054 0.0 1018293